[[{"header":{"parameterUnit":"m.s-1","parameterCategory":1,"la1":30.2991,"la2":30.254,"lo1":-89.0895,"lo2":-89.0444,"dy":0.0017,"dx":0.0017,"nx":28,"ny":28,"refTime":"2025-11-16T09:00:00:Z","depth":0,"parameterNumber":2,"parameterNumberName":"U-component_of_WINDS"},"data":[0,0,0,0,0,0,0,0,0,0,0,0,0,0,0,0,0,0,0,0,0,0,0,0,0,0,0,0,0,0,0,0,0,0,0,0,0,0,0,0,0,0,0,0,0,0,0,0,0,0,0,0,0,0,0,0,0,0,-2.5721,-2.5722,0,-2.5752,-2.5753,-2.5753,-2.5716,-2.5715,-2.5714,-2.5712,-2.5744,-2.5746,-2.5748,0,0,0,0,0,0,0,0,0,0,0,0,0,-2.5633,-2.5635,-2.5721,-2.5722,-2.5722,-2.5752,-2.5753,-2.5753,-2.5717,-2.5715,-2.5713,-2.5712,-2.5743,-2.5746,-2.5748,0,0,0,0,0,0,0,0,0,0,0,0,0,-2.5669,-2.5636,-2.5721,-2.5708,-2.5707,-2.5752,-2.5753,-2.5753,-2.5717,-2.5715,-2.5713,-2.5711,-2.5743,-2.5746,-2.5749,-2.5809,0,0,-2.5758,-2.576,0,0,0,0,0,0,0,0,-2.5667,-2.5672,-2.5709,-2.5709,-2.5708,-2.5728,-2.5733,-2.5772,-2.5718,-2.5713,-2.5712,-2.571,-2.5741,-2.5744,-2.5754,-2.5811,-2.5812,-2.5759,-2.5761,-2.5762,-2.5763,0,0,0,0,0,0,0,-2.5664,-2.567,-2.5734,-2.571,-2.5709,-2.5701,-2.5704,-2.574,-2.5738,-2.5713,-2.5711,-2.5715,-2.574,-2.5751,-2.5754,-2.5812,-2.5759,-2.5761,-2.5763,-2.5765,-2.5923,-2.5925,0,0,0,0,0,0,-2.5663,-2.5669,-2.5733,-2.5734,-2.5682,-2.5704,-2.5707,-2.5724,-2.5737,-2.5737,-2.5717,-2.5713,-2.5747,-2.5751,-2.5755,-2.5828,-2.5762,-2.5765,-2.5767,-2.5921,-2.5923,-2.5926,0,0,0,0,0,0,-2.5661,-2.5669,-2.5731,-2.5701,-2.5708,-2.5708,-2.5727,-2.5726,-2.5737,-2.574,-2.5739,-2.5728,-2.5745,-2.5751,-2.5797,-2.5828,-2.5766,-2.5769,-2.5918,-2.5921,-2.5925,-2.5972,0,0,0,0,0,0,-2.5659,-2.5669,-2.5691,-2.5702,-2.571,-2.5771,-2.5729,-2.5728,-2.5742,-2.5738,-2.5751,-2.5751,-2.5744,-2.5792,-2.58,-2.5832,-2.5772,-2.5915,-2.5919,-2.5923,-2.5968,-2.5977,-2.5985,0,0,0,0,0,-2.5656,-2.5703,-2.5692,-2.57,-2.5737,-2.5773,-2.5778,-2.5769,-2.5745,-2.5768,-2.577,-2.5751,-2.5824,-2.5797,-2.5805,-2.5839,-2.5913,-2.5918,-2.5923,-2.5964,-2.5975,-2.5985,0,0,0,0,0,0,-2.5694,-2.5704,-2.5692,-2.5743,-2.5758,-2.5767,-2.5795,-2.5781,-2.5802,-2.5797,-2.5785,-2.5789,-2.5837,-2.5843,-2.5812,-2.5899,-2.5865,-2.5872,-2.5893,-2.5904,-2.5912,-2.5909,-2.5774,0,0,0,0,0,-2.5709,-2.5737,-2.5744,-2.5788,-2.5796,-2.5795,-2.581,-2.5802,-2.5817,-2.5822,-2.5828,-2.5843,-2.587,-2.5887,-2.5912,-2.597,-2.5973,-2.5997,-2.6006,-2.6013,-2.6018,-2.6051,-2.6062,-2.5943,-2.5943,-2.5943,0,0,-2.5739,-2.5748,-2.5766,-2.5796,-2.5807,-2.5836,-2.58,-2.5832,-2.5855,-2.5827,-2.587,-2.5876,-2.5892,-2.5945,-2.5968,-2.5951,-2.6052,-2.6019,-2.6025,-2.6027,-2.6057,-2.6069,-2.6079,-2.5946,-2.5946,-2.5945,0,0,-2.5809,-2.5818,-2.5857,-2.5869,-2.5885,-2.5884,-2.5894,-2.5906,-2.5909,-2.5953,-2.5933,-2.5961,-2.6006,-2.6019,-2.6032,-2.6111,-2.6094,-2.612,-2.6163,-2.6195,-2.6204,-2.6213,-2.6241,-2.6251,-2.6126,-2.6126,-2.6126,0,-2.5843,-2.5887,-2.5878,-2.5913,-2.5928,-2.5906,-2.5946,-2.5958,-2.5982,-2.5993,-2.5974,-2.6033,-2.6043,-2.6098,-2.6118,-2.6129,-2.614,-2.6117,-2.6204,-2.6212,-2.622,-2.6246,-2.6257,-2.6129,-2.6129,-2.6128,-2.6128,0,-2.5929,-2.596,-2.599,-2.6014,-2.6033,-2.607,-2.6068,-2.6088,-2.6081,-2.6082,-2.6129,-2.614,-2.6167,-2.6181,-2.6172,-2.6236,-2.6225,-2.6205,-2.617,-2.6234,-2.6259,-2.6269,-2.6133,-2.6132,-2.6131,-2.6131,0,0,-2.602,-2.6042,-2.6053,-2.6065,-2.6084,-2.6108,-2.6146,-2.6173,-2.619,-2.6209,-2.6241,-2.6282,-2.6265,-2.6279,-2.6273,-2.6302,-2.6365,-2.6278,-2.6279,-2.6294,-2.6436,-2.645,-2.6462,-2.6355,-2.6357,-2.6358,-2.6435,0,-2.6089,-2.6154,-2.6149,-2.621,-2.6239,-2.6222,-2.6255,-2.627,-2.6274,-2.6301,-2.6305,-2.6335,-2.6309,-2.6318,-2.6346,-2.6351,-2.6393,-2.6346,-2.6384,-2.6385,-2.6378,-2.6475,-2.6489,-2.656,-2.6445,-2.6446,-2.6447,0,-2.6178,-2.6201,-2.6265,-2.6281,-2.6294,-2.6323,-2.6349,-2.6375,-2.6393,-2.6394,-2.6413,-2.6403,-2.6443,-2.6409,-2.6463,-2.6432,-2.6448,-2.6453,-2.6456,-2.6457,-2.6419,-2.6478,-2.6583,-2.6593,-2.6463,-2.6462,-2.6461,0,-2.6237,-2.6284,-2.6329,-2.634,-2.636,-2.6382,-2.6392,-2.6408,-2.6426,-2.645,-2.6462,-2.649,-2.6505,-2.6527,-2.6526,-2.6501,-2.6582,-2.6548,-2.6584,-2.6584,-2.6599,-2.6598,-2.6707,-2.6613,-2.6613,-2.6612,-2.6612,0,-2.6314,-2.6354,-2.6356,-2.6383,-2.6428,-2.6424,-2.6469,-2.6477,-2.6493,-2.6522,-2.6509,-2.6537,-2.6535,-2.6564,-2.6563,-2.6609,-2.6616,-2.6619,-2.6618,-2.6619,-2.6618,-2.6627,-2.6622,-2.6615,-2.6615,-2.6614,-2.6613,0,-2.6386,-2.6389,-2.6437,-2.6454,-2.6459,-2.6492,-2.6507,-2.6533,-2.6538,-2.6576,-2.6584,-2.6591,-2.6625,-2.6627,-2.6665,-2.6665,-2.6721,-2.6715,-2.6714,-2.6713,-2.6749,-2.6745,-2.6866,-2.6881,-2.6778,-2.6779,-2.678,0,-2.6434,-2.6464,-2.6486,-2.6505,-2.6516,-2.6547,-2.6565,-2.6564,-2.6584,-2.661,-2.6634,-2.6667,-2.6692,-2.6747,-2.6756,-2.6786,-2.6781,-2.6821,-2.6785,-2.6786,-2.6781,-2.6778,-2.6781,-2.6827,-2.6828,-2.6829,-2.683,0,-2.6519,-2.652,-2.6547,-2.6576,-2.6599,-2.6621,-2.6642,-2.6659,-2.666,-2.6684,-2.6719,-2.6739,-2.678,-2.6813,-2.6843,-2.6854,-2.6843,-2.6842,-2.6852,-2.6852,-2.685,-2.6851,-2.6732,-2.6838,-2.6838,-2.6837,-2.6837,-2.6836,-2.6579,-2.6606,-2.6626,-2.6658,-2.6674,-2.6695,-2.6721,-2.673,-2.6759,-2.6792,-2.679,-2.6829,-2.685,-2.689,-2.6904,-2.6934,-2.6921,-2.6935,-2.6938,-2.6941,-2.6945,-2.6847,-2.694,-2.694,-2.694,-2.6939,-2.6939,0,-2.6663,-2.6676,-2.6705,-2.6736,-2.6761,-2.675,-2.6774,-2.6796,-2.683,-2.6851,-2.6877,-2.6919,-2.6951,-2.6965,-2.6997,-2.7019,-2.7015,-2.7028,-2.7025,-2.7028,-2.6956,-2.6943,-2.7031,-2.7031,-2.7031,-2.7031,-2.7031,-2.7031,-2.6709,-2.6754,-2.6758,-2.6812,-2.6825,-2.6863,-2.6878,-2.6897,-2.6914,-2.6961,-2.6988,-2.6997,-2.7015,-2.705,-2.708,-2.7083,-2.7095,-2.711,-2.7111,-2.7042,-2.7033,-2.7024,-2.7013,-2.7113,-2.7113,-2.7181,-2.7181,-2.7182]},{"header":{"parameterUnit":"m.s-1","parameterCategory":1,"la1":30.2991,"la2":30.254,"lo1":-89.0895,"lo2":-89.0444,"dy":0.0017,"dx":0.0017,"nx":28,"ny":28,"refTime":"2025-11-16T09:00:00:Z","depth":0,"parameterNumber":3,"parameterNumberName":"V-component_of_WINDS"},"data":[0,0,0,0,0,0,0,0,0,0,0,0,0,0,0,0,0,0,0,0,0,0,0,0,0,0,0,0,0,0,0,0,0,0,0,0,0,0,0,0,0,0,0,0,0,0,0,0,0,0,0,0,0,0,0,0,0,0,2.1497,2.1497,0,2.1532,2.1532,2.1533,2.16,2.1601,2.1602,2.1604,2.1633,2.1633,2.1633,0,0,0,0,0,0,0,0,0,0,0,0,0,2.1483,2.1483,2.1497,2.1497,2.1498,2.1532,2.1532,2.1533,2.1599,2.1601,2.1603,2.1604,2.1634,2.1633,2.1633,0,0,0,0,0,0,0,0,0,0,0,0,0,2.15,2.1483,2.1497,2.1535,2.1539,2.1532,2.1532,2.1533,2.1599,2.1601,2.1603,2.1605,2.1634,2.1633,2.1632,2.1589,0,0,2.163,2.163,0,0,0,0,0,0,0,0,2.1499,2.1501,2.1529,2.1532,2.1537,2.1564,2.1539,2.1551,2.1599,2.1576,2.1604,2.1606,2.1608,2.161,2.1612,2.159,2.1591,2.163,2.163,2.163,2.163,0,0,0,0,0,0,0,2.1498,2.15,2.151,2.1529,2.1534,2.1549,2.1554,2.1541,2.158,2.1578,2.1583,2.1587,2.1611,2.1612,2.1613,2.1592,2.163,2.163,2.1629,2.1629,2.1538,2.1536,0,0,0,0,0,0,2.1492,2.1498,2.1509,2.1512,2.1523,2.1548,2.1553,2.1553,2.1581,2.1587,2.1585,2.159,2.1612,2.1614,2.1614,2.1566,2.163,2.1629,2.1629,2.154,2.1537,2.1535,0,0,0,0,0,0,2.1491,2.1492,2.1508,2.1506,2.151,2.1546,2.1545,2.1552,2.1554,2.1586,2.1593,2.158,2.1614,2.1615,2.1596,2.1568,2.1629,2.1628,2.1542,2.1539,2.1536,2.1468,0,0,0,0,0,0,2.1491,2.1492,2.1476,2.1506,2.1509,2.1489,2.1543,2.1552,2.1554,2.156,2.1583,2.1588,2.1616,2.1596,2.1595,2.1568,2.1628,2.1545,2.1541,2.1537,2.1473,2.1463,2.1455,0,0,0,0,0,2.149,2.1454,2.1475,2.1476,2.1491,2.1488,2.149,2.1524,2.1551,2.1536,2.1556,2.1588,2.1571,2.1594,2.1593,2.1565,2.1547,2.1542,2.1538,2.1477,2.1465,2.1455,0,0,0,0,0,0,2.1417,2.1458,2.1482,2.1455,2.1468,2.1499,2.148,2.151,2.1513,2.1519,2.1559,2.1563,2.1538,2.155,2.1574,2.1525,2.1564,2.1559,2.1519,2.1507,2.1499,2.1496,2.1627,0,0,0,0,0,2.1399,2.1395,2.143,2.1402,2.1408,2.1443,2.1443,2.1468,2.1482,2.1487,2.1506,2.1517,2.1515,2.1512,2.1511,2.1476,2.1482,2.1457,2.1447,2.144,2.1435,2.1418,2.1407,2.152,2.152,2.152,0,0,2.1359,2.1381,2.1375,2.1388,2.1401,2.1395,2.1447,2.1437,2.1432,2.1485,2.1468,2.1483,2.1497,2.147,2.1459,2.1479,2.1405,2.1434,2.1428,2.1427,2.1412,2.1401,2.1392,2.1517,2.1518,2.1518,0,0,2.1284,2.13,2.128,2.1293,2.1313,2.1337,2.1332,2.1359,2.1372,2.1356,2.1396,2.139,2.1385,2.1394,2.1398,2.1329,2.1359,2.1328,2.128,2.1263,2.1254,2.1246,2.1222,2.1213,2.1323,2.1323,2.1323,0,2.1232,2.1225,2.1265,2.1254,2.1258,2.1309,2.1288,2.1298,2.1315,2.1317,2.134,2.1336,2.1349,2.1325,2.1309,2.131,2.1305,2.1325,2.1253,2.1245,2.1239,2.1216,2.1206,2.1319,2.1319,2.132,2.132,0,2.116,2.1155,2.1136,2.1155,2.1157,2.1141,2.1178,2.1175,2.1201,2.1222,2.1206,2.1224,2.1229,2.1225,2.1249,2.1205,2.1217,2.1246,2.1285,2.1223,2.1203,2.1194,2.1313,2.1315,2.1316,2.1317,0,0,2.1038,2.1082,2.1074,2.1084,2.1111,2.1107,2.1093,2.11,2.1098,2.1108,2.1098,2.1093,2.1121,2.1125,2.1151,2.1136,2.1081,2.1167,2.1168,2.115,2.1034,2.1013,2.1002,2.1101,2.11,2.1099,2.1033,0,2.0969,2.095,2.0986,2.0958,2.0954,2.1003,2.0991,2.1005,2.1025,2.1024,2.1045,2.1042,2.1078,2.1081,2.1069,2.109,2.1058,2.1096,2.109,2.109,2.1085,2.0991,2.0968,2.0905,2.1025,2.1024,2.1023,0,2.0885,2.0895,2.0866,2.0897,2.0897,2.0885,2.0896,2.0894,2.0912,2.0927,2.0934,2.0965,2.0953,2.0992,2.0976,2.1,2.1,2.1011,2.1009,2.1009,2.1052,2.0988,2.0886,2.0876,2.1011,2.1012,2.1013,0,2.0799,2.0805,2.079,2.0797,2.0831,2.0823,2.0836,2.0856,2.0859,2.0867,2.087,2.0875,2.0878,2.0882,2.0914,2.0939,2.0894,2.0935,2.0905,2.0905,2.0893,2.0893,2.0788,2.0893,2.0893,2.0893,2.0894,0,2.0717,2.0698,2.0752,2.0742,2.0723,2.0765,2.0743,2.0762,2.078,2.0774,2.0815,2.0809,2.0851,2.0849,2.0874,2.0857,2.0857,2.0869,2.0876,2.0865,2.0864,2.0865,2.087,2.0891,2.0892,2.0892,2.0892,0,2.0618,2.0653,2.064,2.0675,2.0684,2.0668,2.0697,2.0689,2.0713,2.0705,2.0706,2.0742,2.0742,2.0774,2.0779,2.0796,2.0768,2.0783,2.0763,2.0768,2.0736,2.0739,2.0629,2.0616,2.0729,2.0728,2.0727,0,2.0563,2.055,2.0585,2.0586,2.0598,2.0598,2.0602,2.0643,2.0644,2.0665,2.0654,2.0658,2.0663,2.066,2.0686,2.069,2.0705,2.0667,2.0706,2.0696,2.0705,2.0705,2.0704,2.0658,2.0656,2.0655,2.0654,0,2.0463,2.0482,2.0486,2.0498,2.0502,2.0512,2.0525,2.0522,2.0567,2.0567,2.0569,2.0573,2.058,2.0583,2.0593,2.0606,2.0637,2.0642,2.0635,2.0624,2.0613,2.0619,2.074,2.0644,2.0645,2.0646,2.0646,2.0647,2.0384,2.0376,2.04,2.0404,2.0419,2.043,2.0425,2.045,2.0452,2.0463,2.0487,2.0485,2.0504,2.0521,2.0531,2.0529,2.0548,2.0539,2.0536,2.0533,2.0527,2.0614,2.0531,2.0531,2.0532,2.0532,2.0532,0,2.0286,2.0305,2.0309,2.0327,2.033,2.0362,2.0378,2.0379,2.0377,2.0393,2.0399,2.0401,2.0404,2.0432,2.0438,2.0431,2.0446,2.0432,2.0432,2.0435,2.051,2.0515,2.042,2.042,2.042,2.042,2.042,2.042,2.0235,2.0223,2.0245,2.024,2.0258,2.0259,2.0265,2.0276,2.029,2.0291,2.0295,2.0314,2.0335,2.0344,2.0348,2.0356,2.0356,2.0337,2.035,2.0419,2.0429,2.044,2.0445,2.0337,2.0337,2.0275,2.0275,2.0274]}]]